EUTELSAT 5 WEST B (EGN*)

Last updated on Wed Nov 05 2025 00:03:27 GMT+0000 (Coordinated Universal Time)

1 44624U 19067A 25308.24941763 -.00000029 00000+0 00000+0 0 9997 2 44624 0.0738 330.4565 0003662 259.7353 258.3823 1.00275403 22183
UTC large
Height (km)
Speed (km/s)
/
Latitude / Longitude
Inclination (degrees)
Orbital Period (minutes)
Azimuth
Elevation
Range (km)
Doppler Factor

Next 0 passes for location: London (51.5072 / 0.1276)

Sorry there are no passes over London.